| time (UTC) | temp C | wind direction | speed KPH | gust KPH | rain 1hr cm | rain 24hr cm | rain mn cm | humidity % | barometer mb |
| 20260510043552 | 25 | 129 | 0.0 | 3.2 | 0.00 | 0.18 | 0.18 | 87 | 1009.8 |
| 20260510043044 | 25 | 145 | 1.6 | 3.2 | 0.00 | 0.18 | 0.18 | 87 | 1010.2 |
| 20260510042536 | 25 | 131 | 0.0 | 1.6 | 0.00 | 0.18 | 0.18 | 87 | 1010.2 |
| 20260510042030 | 25 | 127 | 0.0 | 1.6 | 0.00 | 0.18 | 0.18 | 87 | 1010.2 |
| 20260510041527 | 25 | 123 | 0.0 | 1.6 | 0.00 | 0.18 | 0.18 | 87 | 1010.2 |
| 20260510041243 | 25 | 128 | 0.0 | 1.6 | 0.00 | 0.18 | 0.18 | 86 | 1009.8 |
| 20260510040741 | 25 | 96 | 0.0 | 0.0 | 0.00 | 0.18 | 0.18 | 86 | 1009.8 |
| 20260510040226 | 25 | 138 | 0.0 | 1.6 | 0.00 | 0.18 | 0.18 | 86 | 1009.5 |
| 20260510035507 | 25 | 135 | 0.0 | 1.6 | 0.00 | 0.18 | 0.18 | 85 | 1009.8 |
| 20260510035220 | 25 | 144 | 0.0 | 0.0 | 0.00 | 0.18 | 0.18 | 85 | 1009.8 |
| 20260510034450 | 25 | 114 | 0.0 | 6.4 | 0.00 | 0.18 | 0.18 | 85 | 1010.2 |
| 20260510033943 | 25 | 121 | 0.0 | 6.4 | 0.00 | 0.18 | 0.18 | 84 | 1009.8 |
| 20260510033443 | 25 | 145 | 0.0 | 4.8 | 0.00 | 0.18 | 0.18 | 84 | 1010.2 |
| 20260510032934 | 26 | 157 | 0.0 | 4.8 | 0.00 | 0.18 | 0.18 | 83 | 1009.8 |
| 20260510032425 | 26 | 135 | 0.0 | 4.8 | 0.00 | 0.18 | 0.18 | 82 | 1009.8 |
| 20260510031918 | 25 | 204 | 1.6 | 4.8 | 0.00 | 0.18 | 0.18 | 82 | 1010.2 |
| 20260510031415 | 25 | 117 | 0.0 | 1.6 | 0.00 | 0.18 | 0.18 | 80 | 1010.2 |
| 20260510030910 | 25 | 127 | 0.0 | 3.2 | 0.00 | 0.18 | 0.18 | 78 | 1010.2 |
| 20260510030401 | 25 | 130 | 0.0 | 3.2 | 0.00 | 0.18 | 0.18 | 78 | 1009.8 |
| 20260510025854 | 25 | 120 | 0.0 | 1.6 | 0.00 | 0.18 | 0.18 | 78 | 1009.8 |
| 20260510025616 | 25 | 119 | 0.0 | 0.0 | 0.00 | 0.18 | 0.18 | 79 | 1009.5 |
| 20260510024846 | 25 | 95 | 0.0 | 1.6 | 0.00 | 0.18 | 0.18 | 79 | 1009.5 |
| 20260510024339 | 24 | 112 | 0.0 | 1.6 | 0.00 | 0.18 | 0.18 | 79 | 1009.1 |
| 20260510023834 | 23 | 119 | 0.0 | 0.0 | 0.00 | 0.18 | 0.18 | 82 | 1009.1 |
| 20260510023552 | 23 | 120 | 0.0 | 0.0 | 0.00 | 0.18 | 0.18 | 84 | 1009.1 |
| 20260510022823 | 23 | 115 | 0.0 | 0.0 | 0.00 | 0.18 | 0.18 | 83 | 1009.1 |
| 20260510022317 | 23 | 113 | 0.0 | 1.6 | 0.00 | 0.18 | 0.18 | 84 | 1008.8 |
| 20260510021809 | 23 | 110 | 0.0 | 1.6 | 0.00 | 0.18 | 0.18 | 86 | 1008.5 |
| 20260510021521 | 23 | 117 | 0.0 | 0.0 | 0.00 | 0.18 | 0.18 | 86 | 1008.1 |
| 20260510021407 | 23 | 118 | 0.0 | 0.0 | 0.00 | 0.18 | 0.18 | 86 | 1008.5 |
| 20260510021357 | 23 | 118 | 0.0 | 0.0 | 0.00 | 0.18 | 0.18 | 86 | 1008.5 |
| 20260510015504 | 23 | 127 | 0.0 | 0.0 | 0.00 | 0.18 | 0.18 | 87 | 1008.1 |
| 20260510014732 | 23 | 123 | 0.0 | 0.0 | 0.00 | 0.18 | 0.18 | 86 | 1007.8 |
| 20260510014442 | 23 | 118 | 0.0 | 0.0 | 0.00 | 0.18 | 0.18 | 86 | 1007.8 |
| 20260510013716 | 23 | 136 | 0.0 | 0.0 | 0.00 | 0.18 | 0.18 | 85 | 1007.5 |
| 20260510013215 | 23 | 136 | 0.0 | 0.0 | 0.00 | 0.18 | 0.18 | 84 | 1007.5 |
| 20260510012709 | 23 | 138 | 0.0 | 0.0 | 0.00 | 0.18 | 0.18 | 84 | 1007.5 |
| 20260510012201 | 23 | 118 | 0.0 | 0.0 | 0.00 | 0.18 | 0.18 | 85 | 1007.5 |
| 20260510011912 | 23 | 111 | 0.0 | 1.6 | 0.00 | 0.18 | 0.18 | 85 | 1007.5 |
| 20260510011152 | 23 | 127 | 0.0 | 1.6 | 0.03 | 0.18 | 0.18 | 85 | 1007.5 |
| 20260510010642 | 23 | 116 | 0.0 | 0.0 | 0.05 | 0.18 | 0.18 | 85 | 1007.1 |
| 20260510010135 | 23 | 118 | 0.0 | 0.0 | 0.05 | 0.18 | 0.18 | 85 | 1007.1 |
| 20260510005629 | 23 | 113 | 0.0 | 0.0 | 0.05 | 0.18 | 0.18 | 86 | 1006.8 |
| 20260510005124 | 23 | 117 | 0.0 | 0.0 | 0.05 | 0.18 | 0.18 | 85 | 1006.8 |
| 20260510004618 | 23 | 119 | 0.0 | 0.0 | 0.05 | 0.18 | 0.18 | 84 | 1006.8 |
| 20260510004113 | 23 | 124 | 0.0 | 0.0 | 0.08 | 0.18 | 0.18 | 83 | 1006.8 |
| 20260510003606 | 23 | 126 | 0.0 | 1.6 | 0.13 | 0.18 | 0.18 | 83 | 1006.8 |
| 20260510003103 | 23 | 161 | 0.0 | 1.6 | 0.13 | 0.18 | 0.18 | 82 | 1006.8 |
| 20260510002556 | 23 | 142 | 0.0 | 6.4 | 0.13 | 0.18 | 0.18 | 83 | 1006.8 |
| 20260510002047 | 24 | 133 | 0.0 | 6.4 | 0.13 | 0.18 | 0.18 | 80 | 1007.1 |
| 20260510001538 | 25 | 248 | 3.2 | 4.8 | 0.13 | 0.18 | 0.18 | 80 | 1007.1 |
| 20260510001038 | 25 | 130 | 0.0 | 4.8 | 0.10 | 0.15 | 0.15 | 79 | 1007.1 |
| 20260510000530 | 26 | 119 | 0.0 | 0.0 | 0.08 | 0.13 | 0.13 | 84 | 1006.8 |
| 20260510000022 | 26 | 111 | 0.0 | 0.0 | 0.08 | 0.13 | 0.13 | 81 | 1006.8 |
| 20260509235514 | 26 | 151 | 0.0 | 1.6 | 0.08 | 0.13 | 0.13 | 81 | 1006.8 |
| 20260509235015 | 26 | 118 | 0.0 | 9.7 | 0.08 | 0.13 | 0.13 | 79 | 1006.4 |
| 20260509234507 | 28 | 149 | 3.2 | 9.7 | 0.08 | 0.13 | 0.13 | 78 | 1006.4 |
| 20260509233959 | 30 | 136 | 0.0 | 0.0 | 0.05 | 0.10 | 0.10 | 74 | 1006.4 |
| 20260509233452 | 31 | 137 | 0.0 | 1.6 | 0.00 | 0.05 | 0.05 | 67 | 1006.4 |
| 20260509232951 | 32 | 139 | 0.0 | 3.2 | 0.00 | 0.05 | 0.05 | 62 | 1006.4 |
| 20260509232702 | 32 | 122 | 0.0 | 3.2 | 0.00 | 0.05 | 0.05 | 58 | 1006.4 |
| 20260509231936 | 32 | 159 | 0.0 | 0.0 | 0.00 | 0.05 | 0.05 | 58 | 1006.1 |
| 20260509231429 | 32 | 137 | 0.0 | 0.0 | 0.00 | 0.05 | 0.05 | 58 | 1006.1 |
| 20260509230926 | 32 | 122 | 0.0 | 0.0 | 0.00 | 0.05 | 0.05 | 59 | 1006.1 |
| 20260509230420 | 33 | 121 | 0.0 | 1.6 | 0.00 | 0.05 | 0.05 | 60 | 1006.1 |
| 20260509225915 | 33 | 111 | 0.0 | 1.6 | 0.00 | 0.05 | 0.05 | 57 | 1006.1 |
| 20260509225409 | 33 | 120 | 0.0 | 0.0 | 0.00 | 0.05 | 0.05 | 58 | 1005.8 |
| 20260509224908 | 33 | 110 | 0.0 | 0.0 | 0.00 | 0.05 | 0.05 | 58 | 1005.8 |
| 20260509224401 | 33 | 131 | 0.0 | 1.6 | 0.00 | 0.05 | 0.05 | 57 | 1005.8 |
| 20260509224123 | 34 | 103 | 0.0 | 3.2 | 0.00 | 0.05 | 0.05 | 57 | 1005.8 |
| 20260509223348 | 33 | 123 | 0.0 | 3.2 | 0.00 | 0.05 | 0.05 | 58 | 1005.8 |
| 20260509222840 | 33 | 95 | 0.0 | 0.0 | 0.00 | 0.05 | 0.05 | 57 | 1005.8 |
| 20260509222333 | 33 | 165 | 0.0 | 1.6 | 0.00 | 0.05 | 0.05 | 56 | 1005.8 |
| 20260509221826 | 34 | 119 | 0.0 | 1.6 | 0.00 | 0.05 | 0.05 | 57 | 1005.8 |
| 20260509221320 | 33 | 133 | 0.0 | 1.6 | 0.00 | 0.05 | 0.05 | 57 | 1005.8 |
| 20260509221039 | 35 | 96 | 0.0 | 4.8 | 0.00 | 0.05 | 0.05 | 55 | 1005.8 |
| 20260509220312 | 34 | 103 | 0.0 | 4.8 | 0.00 | 0.05 | 0.05 | 56 | 1005.8 |
| 20260509215805 | 34 | 108 | 0.0 | 3.2 | 0.00 | 0.05 | 0.05 | 55 | 1005.8 |
| 20260509215300 | 35 | 168 | 0.0 | 3.2 | 0.00 | 0.05 | 0.05 | 55 | 1005.8 |
| 20260509214753 | 34 | 167 | 0.0 | 4.8 | 0.00 | 0.05 | 0.05 | 56 | 1005.8 |
| 20260509214244 | 34 | 137 | 0.0 | 4.8 | 0.00 | 0.05 | 0.05 | 55 | 1005.8 |
| 20260509213736 | 35 | 159 | 0.0 | 3.2 | 0.00 | 0.05 | 0.05 | 55 | 1005.8 |
| 20260509212725 | 34 | 141 | 0.0 | 3.2 | 0.00 | 0.05 | 0.05 | 55 | 1005.8 |
| 20260509212219 | 34 | 115 | 1.6 | 1.6 | 0.00 | 0.05 | 0.05 | 57 | 1005.8 |
| 20260509211712 | 34 | 98 | 0.0 | 4.8 | 0.00 | 0.05 | 0.05 | 57 | 1005.8 |
| 20260509211424 | 33 | 170 | 0.0 | 4.8 | 0.00 | 0.05 | 0.05 | 58 | 1006.1 |
| 20260509210701 | 34 | 332 | 1.6 | 3.2 | 0.00 | 0.05 | 0.05 | 57 | 1006.1 |
| 20260509210156 | 33 | 137 | 0.0 | 3.2 | 0.00 | 0.05 | 0.05 | 56 | 1006.1 |
| 20260509205648 | 34 | 60 | 0.0 | 3.2 | 0.00 | 0.05 | 0.05 | 57 | 1006.4 |
| 20260509205142 | 34 | 143 | 0.0 | 3.2 | 0.00 | 0.05 | 0.05 | 59 | 1006.4 |
| 20260509204856 | 33 | 144 | 1.6 | 3.2 | 0.00 | 0.05 | 0.05 | 59 | 1006.4 |
| 20260509204126 | 34 | 130 | 0.0 | 1.6 | 0.00 | 0.05 | 0.05 | 58 | 1006.4 |
| 20260509203619 | 34 | 132 | 0.0 | 3.2 | 0.00 | 0.05 | 0.05 | 56 | 1006.4 |
| 20260509203113 | 34 | 140 | 0.0 | 3.2 | 0.00 | 0.05 | 0.05 | 56 | 1006.4 |
| 20260509202609 | 33 | 110 | 0.0 | 6.4 | 0.00 | 0.05 | 0.05 | 60 | 1006.4 |
| 20260509202101 | 33 | 101 | 0.0 | 6.4 | 0.00 | 0.05 | 0.05 | 58 | 1006.4 |
| 20260509201555 | 33 | 108 | 0.0 | 3.2 | 0.00 | 0.05 | 0.05 | 59 | 1006.8 |
| 20260509201048 | 33 | 133 | 0.0 | 3.2 | 0.00 | 0.05 | 0.05 | 58 | 1006.8 |
| 20260509200545 | 33 | 91 | 1.6 | 3.2 | 0.00 | 0.05 | 0.05 | 60 | 1006.8 |
| 20260509200038 | 33 | 111 | 1.6 | 3.2 | 0.00 | 0.05 | 0.05 | 60 | 1006.8 |
| 20260509195531 | 35 | 132 | 0.0 | 1.6 | 0.00 | 0.05 | 0.05 | 58 | 1006.8 |
| 20260509195024 | 34 | 127 | 0.0 | 1.6 | 0.00 | 0.05 | 0.05 | 60 | 1006.8 |
| 20260509194522 | 33 | 219 | 0.0 | 3.2 | 0.00 | 0.08 | 0.05 | 59 | 1007.1 |
| 20260509194016 | 33 | 153 | 1.6 | 3.2 | 0.00 | 0.08 | 0.05 | 58 | 1006.8 |
| 20260509193509 | 34 | 52 | 1.6 | 3.2 | 0.00 | 0.08 | 0.05 | 57 | 1007.1 |
| 20260509193003 | 34 | 103 | 0.0 | 1.6 | 0.00 | 0.08 | 0.05 | 56 | 1007.1 |
| 20260509192457 | 34 | 142 | 0.0 | 4.8 | 0.00 | 0.08 | 0.05 | 55 | 1007.1 |
| 20260509191959 | 33 | 12 | 0.0 | 4.8 | 0.00 | 0.10 | 0.05 | 57 | 1007.1 |
| 20260509191450 | 33 | 131 | 0.0 | 3.2 | 0.00 | 0.10 | 0.05 | 58 | 1007.1 |
| 20260509190941 | 32 | 150 | 0.0 | 3.2 | 0.00 | 0.10 | 0.05 | 59 | 1007.1 |
| 20260509190437 | 32 | 105 | 0.0 | 4.8 | 0.00 | 0.10 | 0.05 | 61 | 1007.1 |
| 20260509185934 | 32 | 96 | 0.0 | 4.8 | 0.00 | 0.10 | 0.05 | 60 | 1007.5 |
| 20260509185649 | 32 | 244 | 0.0 | 3.2 | 0.00 | 0.10 | 0.05 | 63 | 1007.5 |
| 20260509185140 | 32 | 120 | 0.0 | 3.2 | 0.00 | 0.10 | 0.05 | 66 | 1007.5 |
| 20260509183910 | 32 | 122 | 0.0 | 1.6 | 0.00 | 0.10 | 0.05 | 65 | 1007.5 |
| 20260509183401 | 31 | 119 | 0.0 | 1.6 | 0.00 | 0.10 | 0.05 | 66 | 1007.5 |
| 20260509183122 | 31 | 151 | 0.0 | 1.6 | 0.00 | 0.10 | 0.05 | 64 | 1007.5 |
| 20260509182349 | 31 | 109 | 0.0 | 6.4 | 0.00 | 0.10 | 0.05 | 65 | 1007.5 |
| 20260509182105 | 31 | 119 | 0.0 | 6.4 | 0.00 | 0.13 | 0.05 | 65 | 1007.8 |
| 20260509181339 | 31 | 118 | 0.0 | 4.8 | 0.00 | 0.13 | 0.05 | 66 | 1007.8 |
| 20260509180835 | 31 | 78 | 0.0 | 4.8 | 0.00 | 0.15 | 0.05 | 65 | 1008.1 |
| 20260509180327 | 32 | 99 | 0.0 | 4.8 | 0.00 | 0.18 | 0.05 | 65 | 1008.1 |
| 20260509175819 | 32 | 162 | 0.0 | 6.4 | 0.00 | 0.18 | 0.05 | 64 | 1008.1 |
| 20260509175313 | 31 | 132 | 0.0 | 6.4 | 0.00 | 0.18 | 0.05 | 66 | 1008.5 |
| 20260509174258 | 30 | 114 | 0.0 | 9.7 | 0.00 | 0.18 | 0.05 | 68 | 1008.1 |
| 20260509173246 | 30 | 168 | 3.2 | 6.4 | 0.00 | 0.20 | 0.05 | 69 | 1008.1 |
| 20260509172738 | 31 | 173 | 0.0 | 4.8 | 0.00 | 0.20 | 0.05 | 68 | 1008.5 |
| 20260509172231 | 30 | 186 | 3.2 | 4.8 | 0.00 | 0.20 | 0.05 | 70 | 1008.5 |
| 20260509171955 | 30 | 61 | 0.0 | 1.6 | 0.00 | 0.20 | 0.05 | 74 | 1008.8 |
| 20260509171220 | 30 | 168 | 0.0 | 1.6 | 0.00 | 0.25 | 0.05 | 74 | 1008.8 |
| 20260509170713 | 30 | 226 | 0.0 | 4.8 | 0.00 | 0.25 | 0.05 | 74 | 1008.8 |
| 20260509170203 | 28 | 143 | 0.0 | 4.8 | 0.00 | 0.25 | 0.05 | 76 | 1008.8 |
| 20260509165703 | 29 | 196 | 0.0 | 3.2 | 0.00 | 0.25 | 0.05 | 75 | 1008.8 |
| 20260509165155 | 28 | 174 | 0.0 | 1.6 | 0.00 | 0.25 | 0.05 | 77 | 1008.8 |
| 20260509164647 | 28 | 133 | 0.0 | 0.0 | 0.00 | 0.25 | 0.05 | 77 | 1009.1 |
| 20260509164139 | 28 | 103 | 0.0 | 0.0 | 0.00 | 0.25 | 0.05 | 78 | 1009.1 |
| 20260509162626 | 28 | 118 | 0.0 | 0.0 | 0.00 | 0.28 | 0.05 | 78 | 1008.8 |
| 20260509162340 | 28 | 124 | 0.0 | 0.0 | 0.00 | 0.28 | 0.05 | 78 | 1008.8 |
| 20260509161615 | 27 | 135 | 0.0 | 0.0 | 0.00 | 0.28 | 0.05 | 79 | 1008.8 |
| 20260509161109 | 27 | 122 | 0.0 | 0.0 | 0.00 | 0.28 | 0.05 | 79 | 1008.8 |
| 20260509160602 | 27 | 132 | 0.0 | 0.0 | 0.00 | 0.28 | 0.05 | 79 | 1008.8 |
| 20260509160055 | 27 | 141 | 0.0 | 0.0 | 0.00 | 0.28 | 0.05 | 79 | 1008.8 |
| 20260509155817 | 27 | 148 | 0.0 | 0.0 | 0.00 | 0.28 | 0.05 | 80 | 1009.1 |
| 20260509155044 | 27 | 126 | 0.0 | 1.6 | 0.00 | 0.28 | 0.05 | 80 | 1009.1 |
| 20260509154536 | 27 | 125 | 0.0 | 1.6 | 0.00 | 0.28 | 0.05 | 81 | 1008.8 |
| 20260509154027 | 27 | 142 | 0.0 | 0.0 | 0.00 | 0.28 | 0.05 | 81 | 1008.8 |
| 20260509153526 | 27 | 151 | 0.0 | 0.0 | 0.00 | 0.28 | 0.05 | 82 | 1008.8 |
| 20260509153018 | 27 | 121 | 0.0 | 0.0 | 0.00 | 0.28 | 0.05 | 82 | 1008.8 |
| 20260509152510 | 26 | 114 | 0.0 | 0.0 | 0.00 | 0.28 | 0.05 | 83 | 1008.8 |
| 20260509152002 | 26 | 139 | 0.0 | 0.0 | 0.00 | 0.28 | 0.05 | 82 | 1008.8 |
| 20260509151502 | 26 | 118 | 0.0 | 0.0 | 0.00 | 0.28 | 0.05 | 85 | 1008.8 |
| 20260509150953 | 26 | 125 | 0.0 | 0.0 | 0.00 | 0.28 | 0.05 | 86 | 1008.8 |
| 20260509150709 | 26 | 113 | 0.0 | 0.0 | 0.00 | 0.28 | 0.05 | 87 | 1008.8 |
| 20260509145939 | 26 | 125 | 0.0 | 0.0 | 0.00 | 0.28 | 0.05 | 87 | 1008.8 |
| 20260509145425 | 26 | 127 | 0.0 | 0.0 | 0.00 | 0.28 | 0.05 | 87 | 1008.5 |
| 20260509144411 | 25 | 121 | 0.0 | 0.0 | 0.00 | 0.36 | 0.05 | 89 | 1008.5 |
| 20260509143905 | 25 | 121 | 0.0 | 0.0 | 0.00 | 0.36 | 0.05 | 89 | 1008.5 |
| 20260509143359 | 25 | 126 | 0.0 | 0.0 | 0.00 | 0.36 | 0.05 | 90 | 1008.1 |
| 20260509142855 | 25 | 123 | 0.0 | 0.0 | 0.00 | 0.36 | 0.05 | 90 | 1008.1 |
| 20260509142347 | 25 | 122 | 0.0 | 0.0 | 0.00 | 0.36 | 0.05 | 91 | 1008.1 |
| 20260509141841 | 25 | 117 | 0.0 | 0.0 | 0.00 | 0.36 | 0.05 | 91 | 1008.1 |
| 20260509141332 | 25 | 131 | 0.0 | 0.0 | 0.00 | 0.36 | 0.05 | 91 | 1008.1 |
| 20260509140823 | 25 | 130 | 0.0 | 0.0 | 0.00 | 0.36 | 0.05 | 91 | 1007.8 |
| 20260509140316 | 25 | 137 | 0.0 | 1.6 | 0.00 | 0.36 | 0.05 | 91 | 1007.8 |
| 20260509135810 | 25 | 146 | 0.0 | 1.6 | 0.00 | 0.36 | 0.05 | 92 | 1008.1 |
| 20260509135246 | 25 | 135 | 0.0 | 0.0 | 0.00 | 0.36 | 0.05 | 92 | 1007.8 |
| 20260509134738 | 25 | 135 | 0.0 | 0.0 | 0.00 | 0.36 | 0.05 | 92 | 1008.1 |
| 20260509134231 | 25 | 146 | 0.0 | 0.0 | 0.00 | 0.36 | 0.05 | 92 | 1008.5 |
| 20260509133952 | 25 | 121 | 0.0 | 0.0 | 0.00 | 0.36 | 0.05 | 93 | 1008.1 |
| 20260509133444 | 25 | 149 | 0.0 | 0.0 | 0.00 | 0.36 | 0.05 | 93 | 1008.8 |
| 20260509132931 | 25 | 125 | 0.0 | 0.0 | 0.00 | 0.36 | 0.05 | 93 | 1008.8 |
| 20260509132207 | 24 | 119 | 0.0 | 4.8 | 0.00 | 0.36 | 0.05 | 93 | 1009.1 |
| 20260509131701 | 24 | 137 | 0.0 | 4.8 | 0.00 | 0.36 | 0.05 | 93 | 1009.1 |
| 20260509131159 | 24 | 134 | 0.0 | 0.0 | 0.00 | 0.36 | 0.05 | 94 | 1009.1 |
| 20260509130651 | 24 | 137 | 0.0 | 0.0 | 0.00 | 0.36 | 0.05 | 94 | 1008.8 |
| 20260509130411 | 24 | 137 | 0.0 | 0.0 | 0.00 | 0.36 | 0.05 | 94 | 1008.8 |
| 20260509125638 | 24 | 134 | 0.0 | 0.0 | 0.00 | 0.36 | 0.05 | 94 | 1008.8 |
| 20260509125137 | 24 | 127 | 0.0 | 0.0 | 0.00 | 0.36 | 0.05 | 94 | 1008.8 |
| 20260509124629 | 24 | 138 | 0.0 | 0.0 | 0.00 | 0.36 | 0.05 | 95 | 1009.1 |
| 20260509124122 | 24 | 134 | 0.0 | 0.0 | 0.00 | 0.36 | 0.05 | 95 | 1008.8 |
| 20260509123614 | 24 | 132 | 0.0 | 0.0 | 0.00 | 0.36 | 0.05 | 95 | 1008.5 |
| 20260509123050 | 23 | 123 | 0.0 | 0.0 | 0.00 | 0.36 | 0.05 | 95 | 1008.8 |
| 20260509122543 | 23 | 124 | 0.0 | 0.0 | 0.00 | 0.36 | 0.05 | 95 | 1008.5 |
| 20260509122035 | 23 | 130 | 0.0 | 0.0 | 0.00 | 0.36 | 0.05 | 95 | 1008.8 |
| 20260509121532 | 23 | 134 | 0.0 | 0.0 | 0.00 | 0.36 | 0.05 | 95 | 1008.8 |
| 20260509121026 | 23 | 136 | 0.0 | 0.0 | 0.00 | 0.36 | 0.05 | 95 | 1008.8 |
| 20260509120520 | 23 | 141 | 0.0 | 0.0 | 0.00 | 0.36 | 0.05 | 95 | 1008.5 |
| 20260509120013 | 23 | 123 | 0.0 | 0.0 | 0.00 | 0.36 | 0.05 | 95 | 1008.5 |
| 20260509115726 | 23 | 124 | 0.0 | 0.0 | 0.00 | 0.36 | 0.05 | 95 | 1008.1 |
| 20260509114958 | 23 | 127 | 0.0 | 0.0 | 0.00 | 0.36 | 0.05 | 95 | 1008.5 |
| 20260509114449 | 24 | 137 | 0.0 | 0.0 | 0.00 | 0.36 | 0.05 | 95 | 1008.5 |
| 20260509113942 | 23 | 118 | 0.0 | 0.0 | 0.00 | 0.36 | 0.05 | 95 | 1008.5 |
| 20260509113143 | 23 | 121 | 0.0 | 0.0 | 0.00 | 0.36 | 0.05 | 95 | 1008.5 |
| 20260509112642 | 23 | 119 | 0.0 | 0.0 | 0.00 | 0.36 | 0.05 | 95 | 1008.5 |
| 20260509111909 | 23 | 119 | 0.0 | 0.0 | 0.00 | 0.36 | 0.05 | 95 | 1008.5 |
| 20260509111625 | 23 | 119 | 0.0 | 0.0 | 0.00 | 0.36 | 0.05 | 95 | 1008.5 |
| 20260509110903 | 23 | 111 | 0.0 | 0.0 | 0.00 | 0.36 | 0.05 | 95 | 1008.5 |
| 20260509110358 | 23 | 118 | 0.0 | 0.0 | 0.00 | 0.36 | 0.05 | 95 | 1008.5 |
| 20260509105849 | 23 | 114 | 0.0 | 0.0 | 0.00 | 0.36 | 0.05 | 95 | 1008.1 |
| 20260509105341 | 23 | 122 | 0.0 | 0.0 | 0.00 | 0.36 | 0.05 | 95 | 1008.1 |
| 20260509104840 | 23 | 123 | 0.0 | 0.0 | 0.00 | 0.36 | 0.05 | 95 | 1008.1 |
| 20260509104333 | 23 | 123 | 0.0 | 0.0 | 0.00 | 0.36 | 0.05 | 95 | 1007.8 |
| 20260509103826 | 23 | 122 | 0.0 | 0.0 | 0.00 | 0.36 | 0.05 | 95 | 1007.8 |
| 20260509103319 | 23 | 122 | 0.0 | 0.0 | 0.00 | 0.36 | 0.05 | 95 | 1007.5 |
| 20260509102817 | 23 | 127 | 0.0 | 0.0 | 0.00 | 0.36 | 0.05 | 95 | 1008.1 |
| 20260509102310 | 23 | 128 | 0.0 | 0.0 | 0.00 | 0.36 | 0.05 | 95 | 1007.8 |
| 20260509101804 | 23 | 128 | 0.0 | 0.0 | 0.00 | 0.36 | 0.05 | 95 | 1008.1 |
| 20260509101518 | 23 | 128 | 0.0 | 0.0 | 0.00 | 0.36 | 0.05 | 95 | 1007.8 |
| 20260509100755 | 23 | 127 | 0.0 | 0.0 | 0.00 | 0.36 | 0.05 | 95 | 1007.8 |
| 20260509100518 | 23 | 125 | 0.0 | 0.0 | 0.00 | 0.36 | 0.05 | 95 | 1007.8 |
| 20260509095959 | 23 | 123 | 0.0 | 0.0 | 0.00 | 0.36 | 0.05 | 95 | 1007.8 |
| 20260509095230 | 23 | 123 | 0.0 | 0.0 | 0.00 | 0.36 | 0.05 | 95 | 1007.5 |
| 20260509094730 | 23 | 123 | 0.0 | 0.0 | 0.00 | 0.36 | 0.05 | 95 | 1007.5 |
| 20260509094222 | 23 | 124 | 0.0 | 0.0 | 0.00 | 0.36 | 0.05 | 95 | 1007.8 |
| 20260509093714 | 23 | 118 | 0.0 | 0.0 | 0.00 | 0.36 | 0.05 | 95 | 1007.5 |
| 20260509093425 | 23 | 118 | 0.0 | 0.0 | 0.00 | 0.36 | 0.05 | 95 | 1007.5 |
| 20260509092926 | 23 | 118 | 0.0 | 0.0 | 0.00 | 0.36 | 0.05 | 94 | 1007.8 |
| 20260509092159 | 23 | 118 | 0.0 | 0.0 | 0.00 | 0.36 | 0.05 | 94 | 1007.8 |
| 20260509091649 | 23 | 118 | 0.0 | 0.0 | 0.00 | 0.36 | 0.05 | 94 | 1007.8 |
| 20260509091141 | 23 | 118 | 0.0 | 0.0 | 0.00 | 0.36 | 0.05 | 94 | 1007.8 |
| 20260509090631 | 23 | 118 | 0.0 | 0.0 | 0.00 | 0.36 | 0.05 | 94 | 1008.1 |
| 20260509090123 | 23 | 118 | 0.0 | 0.0 | 0.00 | 0.36 | 0.05 | 94 | 1008.1 |
| 20260509085614 | 23 | 117 | 0.0 | 0.0 | 0.00 | 0.36 | 0.05 | 94 | 1008.1 |
| 20260509085110 | 23 | 113 | 0.0 | 0.0 | 0.00 | 0.36 | 0.05 | 94 | 1008.1 |
| 20260509084820 | 23 | 123 | 0.0 | 0.0 | 0.00 | 0.36 | 0.05 | 94 | 1007.8 |
| 20260509084050 | 23 | 118 | 0.0 | 0.0 | 0.00 | 0.36 | 0.05 | 94 | 1007.8 |
| 20260509083544 | 24 | 117 | 0.0 | 0.0 | 0.00 | 0.36 | 0.05 | 94 | 1007.5 |
| 20260509083036 | 23 | 131 | 0.0 | 0.0 | 0.00 | 0.36 | 0.05 | 94 | 1007.8 |
| 20260509082524 | 23 | 165 | 0.0 | 0.0 | 0.00 | 0.36 | 0.05 | 94 | 1007.8 |
| 20260509082019 | 23 | 124 | 0.0 | 0.0 | 0.00 | 0.36 | 0.05 | 94 | 1007.8 |
| 20260509081510 | 23 | 124 | 0.0 | 0.0 | 0.00 | 0.36 | 0.05 | 94 | 1007.8 |
| 20260509081002 | 23 | 128 | 0.0 | 0.0 | 0.00 | 0.36 | 0.05 | 94 | 1007.8 |
| 20260509080449 | 23 | 137 | 0.0 | 0.0 | 0.00 | 0.36 | 0.05 | 94 | 1007.8 |
| 20260509075944 | 23 | 122 | 0.0 | 0.0 | 0.00 | 0.36 | 0.05 | 94 | 1007.8 |
| 20260509075438 | 23 | 150 | 0.0 | 0.0 | 0.00 | 0.36 | 0.05 | 94 | 1007.8 |
| 20260509075159 | 23 | 132 | 0.0 | 1.6 | 0.00 | 0.36 | 0.05 | 94 | 1007.8 |
| 20260509074422 | 23 | 113 | 0.0 | 1.6 | 0.00 | 0.36 | 0.05 | 94 | 1007.8 |
| 20260509073914 | 23 | 121 | 0.0 | 0.0 | 0.00 | 0.36 | 0.05 | 94 | 1007.8 |
| 20260509073407 | 24 | 107 | 0.0 | 0.0 | 0.00 | 0.36 | 0.05 | 94 | 1007.8 |
| 20260509073121 | 23 | 124 | 0.0 | 0.0 | 0.00 | 0.36 | 0.05 | 94 | 1007.8 |
| 20260509072359 | 24 | 136 | 0.0 | 0.0 | 0.00 | 0.36 | 0.05 | 94 | 1008.1 |
| 20260509071853 | 24 | 121 | 0.0 | 0.0 | 0.00 | 0.36 | 0.05 | 94 | 1008.1 |
| 20260509071343 | 24 | 117 | 0.0 | 0.0 | 0.00 | 0.36 | 0.05 | 94 | 1008.1 |
| 20260509071100 | 23 | 130 | 0.0 | 0.0 | 0.00 | 0.36 | 0.05 | 94 | 1008.5 |
| 20260509070327 | 23 | 123 | 0.0 | 0.0 | 0.00 | 0.36 | 0.05 | 94 | 1008.1 |
| 20260509065818 | 23 | 119 | 0.0 | 0.0 | 0.00 | 0.36 | 0.05 | 94 | 1008.5 |
| 20260509065311 | 23 | 121 | 0.0 | 0.0 | 0.05 | 0.36 | 0.05 | 94 | 1008.5 |
| 20260509064805 | 23 | 121 | 0.0 | 0.0 | 0.05 | 0.36 | 0.05 | 94 | 1008.1 |
| 20260509063756 | 23 | 119 | 0.0 | 0.0 | 0.05 | 0.36 | 0.05 | 94 | 1008.1 |
| 20260509063518 | 23 | 119 | 0.0 | 0.0 | 0.05 | 0.36 | 0.05 | 94 | 1008.1 |
| 20260509063010 | 24 | 118 | 0.0 | 0.0 | 0.05 | 0.36 | 0.05 | 94 | 1008.1 |
| 20260509062239 | 24 | 118 | 0.0 | 0.0 | 0.05 | 0.36 | 0.05 | 94 | 1008.5 |
| 20260509061952 | 23 | 119 | 0.0 | 0.0 | 0.05 | 0.36 | 0.05 | 94 | 1008.5 |
| 20260509061222 | 23 | 120 | 0.0 | 0.0 | 0.05 | 0.36 | 0.05 | 94 | 1008.5 |
| 20260509060939 | 23 | 120 | 0.0 | 0.0 | 0.05 | 0.36 | 0.05 | 94 | 1008.1 |
| 20260509060422 | 23 | 120 | 0.0 | 0.0 | 0.05 | 0.36 | 0.05 | 93 | 1008.5 |
| 20260509055646 | 23 | 120 | 0.0 | 0.0 | 0.05 | 0.36 | 0.05 | 93 | 1008.5 |
| 20260509055139 | 23 | 126 | 0.0 | 0.0 | 0.00 | 0.30 | 0.00 | 93 | 1008.5 |
| 20260509054632 | 23 | 153 | 0.0 | 0.0 | 0.00 | 0.30 | 0.00 | 93 | 1008.5 |
| 20260509054120 | 23 | 119 | 0.0 | 0.0 | 0.00 | 0.30 | 0.00 | 93 | 1008.5 |
| 20260509053611 | 23 | 118 | 0.0 | 0.0 | 0.00 | 0.30 | 0.00 | 93 | 1008.5 |
| 20260509053105 | 23 | 118 | 0.0 | 0.0 | 0.00 | 0.30 | 0.00 | 93 | 1008.5 |
| 20260509052559 | 23 | 119 | 0.0 | 0.0 | 0.00 | 0.30 | 0.00 | 93 | 1008.8 |
| 20260509052308 | 23 | 116 | 0.0 | 0.0 | 0.00 | 0.30 | 0.00 | 92 | 1008.5 |
| 20260509051539 | 23 | 119 | 0.0 | 0.0 | 0.00 | 0.30 | 0.00 | 92 | 1008.5 |
| 20260509051034 | 24 | 118 | 0.0 | 0.0 | 0.00 | 0.30 | 0.00 | 93 | 1008.5 |
| 20260509050744 | 23 | 118 | 0.0 | 0.0 | 0.00 | 0.30 | 0.00 | 93 | 1008.5 |
| 20260509050235 | 23 | 120 | 0.0 | 0.0 | 0.00 | 0.30 | 0.00 | 93 | 1008.5 |
| 20260509045511 | 23 | 120 | 0.0 | 0.0 | 0.00 | 0.30 | 0.30 | 92 | 1008.5 |
| 20260509045003 | 23 | 120 | 0.0 | 0.0 | 0.00 | 0.30 | 0.30 | 92 | 1008.8 |
| 20260509044455 | 23 | 120 | 0.0 | 0.0 | 0.00 | 0.30 | 0.30 | 92 | 1008.8 |
| 20260509043955 | 23 | 117 | 0.0 | 0.0 | 0.00 | 0.30 | 0.30 | 92 | 1008.8 |